Regional Weather Roundup
Issued by NWS

Home | Current Version | Previous Version | Text Only | Print | Product List | Glossary On
Versions: 1 2 3 4 5 6 7 8 9 10 11 12 13 14 15 16 17 18 19 20 21 22 23 24 25 26 27 28 29 30 31 32 33 34 35 36 37 38 39 40 41 42 43 44 45 46 47 48 49 50
000
ASUS43 KMPX 210001
RWRMN
WEATHER ROUNDUP FOR MINNESOTA
NATIONAL WEATHER SERVICE TWIN CITIES/CHANHASSEN MN
700 PM CDT MON OCT 20 2014


NOTE: "FAIR" INDICATES FEW OR NO CLOUDS BELOW 12,000 FEET WITH NO
SIGNIFICANT WEATHER AND/OR OBSTRUCTIONS TO VISIBILITY. N/A MEANS
CURRENT SKY AND/OR WEATHER CONDITIONS ARE NOT AVAILABLE.

MNZ060>063-068>070-210100-
   Twin Cities Metro

CITY           SKY/WX    TMP DP  RH WIND       PRES   REMARKS
TWIN CITIES    CLEAR     55  39  54 N9        30.03R
6HR MIN TEMP:  55; 6HR MAX TEMP:  64;

ST PAUL        CLEAR     55  39  54 N7        30.04R
CRYSTAL        CLEAR     55  39  54 NE8       30.03R
BLAINE         CLEAR     54  39  58 N6        30.03R
LAKEVILLE      CLEAR     52  39  62 NW3       30.02R
EDEN PRAIRIE   CLEAR     56  39  53 N6        30.01R
6HR MIN TEMP:  56; 6HR MAX TEMP:  64;

SOUTH ST PAUL  CLEAR     55  38  53 N5        30.03R
LAKE ELMO      FAIR      52  41  66 NE7       30.04R
$$
MNZ001>005-007-008-013>017-022>024-027-028-210100-
   Northwest Minnesota

CITY           SKY/WX    TMP DP  RH WIND       PRES   REMARKS
BEMIDJI        CLEAR     43  37  79 NE6       30.06R
HALLOCK        CLEAR     52  39  62 E5        30.04S
ROSEAU         CLEAR     46  39  76 E6        30.07R
WARROAD        CLEAR     45  39  81 E6        30.08S
THIEF RVR FALL CLEAR     50  37  62 CALM      30.06R
CROOKSTON      CLEAR     54  39  58 E3        30.05S
FOSSTON        CLEAR     46  32  57 CALM      30.06S
DETROIT LAKES  CLEAR     54  39  58 CALM      30.05S
MOORHEAD       CLEAR     55  43  62 CALM      30.04R
PARK RAPIDS    CLEAR     54  33  45 NE5       30.04R
MAHNOMEN       FAIR      50  37  60 N6        30.04S
$$
MNZ006-009>011-018-025>026-210100-
   North Central Minnesota

CITY           SKY/WX    TMP DP  RH WIND       PRES   REMARKS
BAUDETTE       CLEAR     43  36  76 N3        30.09R
FLAG ISLAND    CLEAR     45  36  70 CALM      30.08R
INTL FALLS     CLOUDY    45  36  70 N3        30.09R
6HR MIN TEMP:  45; 6HR MAX TEMP:  48;

WASKISH        CLEAR     39  36  87 CALM      30.08R
BIG FORK       CLOUDY    45  37  76 CALM      30.09R
LONGVILLE      CLEAR     46  39  76 NE3       30.06R
GRAND RAPIDS   CLOUDY    45  36  70 N7        30.08R
CRANE LAKE     CLOUDY    45  36  70 N5        30.11R
ORR            CLOUDY    45  34  65 CALM      30.06R
COOK           CLOUDY    45  36  70 CALM      30.08R
WALKER         FAIR      46  40  81 E3        30.05R
$$
MNZ012-019>021-037-210100-
   Northeast Minnesota

CITY           SKY/WX    TMP DP  RH WIND       PRES   REMARKS
DULUTH         CLOUDY    47  36  65 N8        30.06R
6HR MIN TEMP:  47; 6HR MAX TEMP:  50;

ELY            CLOUDY    45  36  70 CALM      30.08R
HIBBING        CLOUDY    47  36  65 NE5       30.08R
EVELETH        CLOUDY    45  34  65 N3        30.08R
DULUTH HARBOR  CLOUDY    50  39  66 N7        30.08R
TWO HARBORS    CLOUDY    52  28  40 N5        30.05R
SILVER BAY     CLEAR     48  37  66 CALM      30.04R
GRAND MARAIS     N/A     46  36  68 N7        30.05R
G MARAIS ARPRT CLOUDY    39  32  75 NW7       30.05R
$$
MNZ029>031-032-039>041-046>048-054>057-064-210100-
   West Central Minnesota

CITY           SKY/WX    TMP DP  RH WIND       PRES   REMARKS
FERGUS FALLS   CLEAR     55  36  47 CALM      30.04S
WHEATON        CLEAR     57  39  51 CALM      30.05S
MORRIS         CLEAR     55  39  54 N7        30.03S
ALEXANDRIA     CLEAR     56  36  47 N5        30.05R
ELBOW LAKE     FAIR      53  39  58 NW3       30.04R
WADENA         CLEAR     52  37  58 CALM      30.04R
GLENWOOD       CLEAR     52  36  54 NW5       30.04S
APPLETON       CLEAR     55  37  50 N5        30.03S
BENSON         CLEAR     54  41  62 N3        30.04R
ORTONVILLE     CLEAR     55  39  54 NE5       30.03S
MADISON        CLEAR     59  39  47 NE5       30.03S
WILLMAR        FAIR      57  37  47 N3        30.05R
$$
MNZ033>034-036-042>043-049>051-058-059-210100-
   Central Minnesota

CITY           SKY/WX    TMP DP  RH WIND       PRES   REMARKS
ST CLOUD       CLEAR     56  39  53 NE3       30.03R
6HR MIN TEMP:  56; 6HR MAX TEMP:  66;

SAUK CENTRE    FAIR      52  38  58 CALM      30.04R
PAYNESVILLE    CLEAR     51  38  60 CALM      30.04R
AITKIN         CLEAR     46  39  76 NE3       30.05R
PINE RIVER     CLEAR     48  39  71 CALM      30.08R
BRAINERD       CLEAR     48  38  68 NE3       30.05R
STAPLES        CLEAR     52  34  50 CALM      30.04R
LONG PRAIRIE   FAIR      52  37  58 CALM      30.04R
LITTLE FALLS   CLEAR     52  37  58 CALM      30.04R
LITCHFIELD     CLEAR     57  39  51 CALM      30.04R
BUFFALO        CLEAR     53  39  58 N3        30.04R
MAPLE LAKE     CLEAR     51  41  69 N3        30.04R
$$
MNZ037-044-045-052-053-210100-
   East Central Minnesota

CITY           SKY/WX    TMP DP  RH WIND       PRES   REMARKS
PRINCETON      CLEAR     52  41  66 CALM      30.05R
MORA           CLEAR     46  37  71 CALM      30.07R
CAMBRIDGE      CLEAR     54  39  58 NE3       30.03R
RUSH CITY      MOCLDY    47  38  71 NE6       30.06R
MOOSE LAKE     CLOUDY    46  36  66 NW5       30.04S
HINCKLEY       FAIR      45  37  76 N3        30.06R
CLOQUET        CLOUDY    46  36  66 N6        30.06R
MCGREGOR       CLEAR     45  37  76 N5        30.07R
$$
MNZ071>073-080-081-089-090-097-098-210100-
   Southwest Minnesota

CITY           SKY/WX    TMP DP  RH WIND       PRES   REMARKS
MONTEVIDEO     CLEAR     55  37  50 NE5       30.04S
GRANITE FALLS  CLEAR     58  38  47 CALM      30.05R
CANBY          CLEAR     60  39  47 CALM      30.05R
MARSHALL       CLEAR     61  37  41 N7        30.03R
REDWOOD FALLS  CLEAR     61  39  44 N3        30.03R
OLIVIA         CLEAR     54  37  54 CALM      30.03S
PIPESTONE      CLEAR     63  36  36 CALM      30.04S
WINDOM         CLEAR     52  37  58 NW7       30.04R
WORTHINGTON    CLEAR     57  36  44 N3        30.05R
JACKSON        CLEAR     54  36  50 N3        30.04R
TRACY          CLEAR     58  37  45 N5        30.04S
SLAYTON        CLEAR     57  33  40 CALM      30.05S
$$
MNZ065>067-074>077-082>085-091>093-210100-
   South Central Minnesota

CITY           SKY/WX    TMP DP  RH WIND       PRES   REMARKS
MANKATO        CLEAR     57  36  44 NW7       30.02R
NEW ULM        CLEAR     57  39  51 N7        30.03R
ST JAMES       CLEAR     55  37  50 NW3       30.04R
FAIRMONT       CLEAR     55  30  38 NW5       30.02S
GLENCOE        CLEAR     57  39  52 N6        30.02R
FARIBAULT      CLEAR     50  39  66 CALM      30.02R
OWATONNA       CLEAR     50  37  62 N5        30.02R
WASECA         CLEAR     50  34  53 N5        30.03R
ALBERT LEA     CLEAR     57  39  51 NW3       30.01R
$$
MNZ078>079-086>088-094>096-210100-
   Southeast Minnesota

CITY           SKY/WX    TMP DP  RH WIND       PRES   REMARKS
ROCHESTER      CLEAR     53  41  63 N8        30.02R
6HR MIN TEMP:  52; 6HR MAX TEMP:  63;

RED WING       CLEAR     55  39  54 N7        30.02R
STANTON        CLEAR     53  41  62 N3        30.01R
DODGE CENTER   PTCLDY    54  41  62 N6        30.02R
WINONA         CLEAR     55  43  62 CALM      30.01R
AUSTIN         CLEAR     55  41  58 CALM      30.01R
PRESTON        CLEAR     53  40  62 N3        30.01R
$$
ABBREVIATIONS USED IN REMARKS
   TC - TEMPERATURES IN CELSIUS
  WCI - WIND CHILL INDEX
   HX - HEAT INDEX
  VSB - VISIBILITY
$$


USA.gov is the U.S. government's official web portal to all federal, state and local government web resources and services.